User: anonymous   Login
Location: Hylvaty SDH
(49.9612°N, 16.4057°E)
Time: 08:39:34
(UTC+01:00)
Language:

Transit 4A - Orbit

View from above orbital plane
View from above orbital plane
View from above satellite
View from above satellite

Ground track
Ground track

The orbit data is extracted from the following two-line orbital elements,

1   116U 61015A   20299.90020689 -.00000023 +00000-0 +41526-4 0  9995
2   116 066.8095 249.3186 0082439 276.6927 082.4775 13.91777132009982
Epoch (UTC): 25 October 2020 21:36:17
Eccentricity: 0.0082439
inclination: 66.8095°
perigee height: 862 km
apogee height: 982 km
right ascension of ascending node: 249.3186°
argument of perigee: 276.6927°
revolutions per day: 13.91777132
mean anomaly at epoch: 82.4775°
orbit number at epoch: 998

The dashed part of the orbit path shows where the satellite is in the earth's shadow,  

DLR